Current weather by "City, St" or "zip code"  
 

Current Conditions: Carlsbad, Cavern City Air Terminal Airport, NM

Mostly Cloudy


68.0 F

Last Updated on Sep 18 2020, 12:53 am MDT
Humidity: 68%
Wind Speed: E 3.5 mph
Barometer 30.18 in
Dewpoint: 57.0 F
Visibility: 10.00 mi
Precip: --
Heat Index: NA
Wind Chill: NA
Current conditions at:

Carlsbad, Cavern City Air Terminal Airport, NM (KCNM)

Lat: 32.3375 Lon: 104.26333

Local Radar Image active severe weather and emergency alerts image image weather storm and storm spotter reports image weather observation monitoring service image
Local
Radar
Active
Alerts
Storm Reports Obs
Monitoring

Sign-up For Email & Text Message Weather Alert Notification Services



Advertise Here

Observation History for Carlsbad, Cavern City Air Terminal Airport, NM


Time Wind
(mph)
Vis
(mi)
Weather Precip (in) Temperature (F) Relative
Humidity
Wind
Chill
(F)
Heat
Index
(F)
Pressure
Air Dwpt altimeter
(in)
sea level
(mb)
Rmks
12:53 am MDT E 3.5 10.00 Mostly Cloudy -- 68.0 57.0 68% NA NA 30.18 1016.9
11:53 pm MDT E 5.8 10.00 Mostly Cloudy -- 67.0 55.9 68% NA NA 30.18 1017.2
10:53 pm MDT N 0.0 10.00 Partly Cloudy -- 71.0 50.0 47% NA NA 30.17 1016.6
9:53 pm MDT SW 4.6 10.00 Mostly Cloudy -- 71.0 50.0 47% NA NA 30.16 1016.6
8:53 pm MDT S 6.9 10.00 Fair -- 70.0 52.0 53% NA NA 30.16 1016.7
7:53 pm MDT S 5.8 10.00 Fair -- 74.0 55.0 52% NA NA 30.14 1016.0
6:53 pm MDT SE 5.8 10.00 Fair -- 78.0 55.0 45% NA NA 30.12 1015.5
5:53 pm MDT SE 5.8 10.00 Fair -- 79.0 55.0 44% NA NA 30.12 1015.1
4:53 pm MDT SE 6.9 10.00 Mostly Cloudy -- 80.0 55.0 42% NA 80 30.12 1015.2
3:53 pm MDT E 13.8 10.00 Thunderstorm in Vicinity -- 72.0 61.0 68% NA NA 30.14 1016.3
2:53 pm MDT NW 8.1 10.00 Partly Cloudy -- 84.0 51.1 32% NA 82 30.13 1015.2
1:53 pm MDT N 5.8 10.00 Fair -- 83.0 55.0 38% NA 82 30.17 1016.5
12:53 pm MDT NE 9.2 10.00 Fair -- 82.0 55.0 40% NA 81 30.21 1017.7
11:53 am MDT N 0.0 10.00 Fair -- 77.0 54.0 45% NA NA 30.23 1018.7
10:53 am MDT N 5.8 10.00 Fair -- 75.0 50.0 42% NA NA 30.25 1019.2
9:53 am MDT NW 10.4 10.00 Partly Cloudy -- 72.0 48.0 43% NA NA 30.25 1019.3
8:53 am MDT N 13.8 10.00 Fair -- 68.0 46.9 47% NA NA 30.25 1019.5
7:53 am MDT NW 9.2 10.00 Partly Cloudy -- 66.0 46.0 49% NA NA 30.23 1018.8
6:53 am MDT NW 10.4 10.00 Fair -- 61.0 46.9 60% 60 NA 30.20 1018.0
5:53 am MDT NW 6.9 10.00 Fair -- 63.0 46.9 56% 63 NA 30.18 1017.0
4:53 am MDT NW 8.1 10.00 Fair -- 62.0 46.9 58% 61 NA 30.16 1016.4
3:53 am MDT W 8.1 10.00 Fair -- 62.0 46.9 58% 61 NA 30.15 1015.7
2:53 am MDT NW 3.5 10.00 A Few Clouds -- 65.0 46.9 52% NA NA 30.15 1015.6

Regional Weather Observation


Artesia Municipal Airport, NM (KATS)

Fair
68.0 F

Roswell International Air Center Airport, NM (KROW)

Fair
67.0 F

Pine Springs, Guadalupe Mountains National Park, TX (KGDP)

Partly Cloudy
64.0 F

Hobbs / Lea County, NM (KHOB)

Fair
63.0 F

Alamogordo-White, NM (KALM)

Fair
68.0 F

Sierra Blanca Regional Airport, NM (KSRR)

Mostly Cloudy
55.0 F